Probability
5 4 4 6 9 11 13 15 16 18 21 19 15 12 9 6 3 2 1 0 0 0 0 1 2 3 3 3 2 1 1 0 0 0 0 0 0 0 0 0 0 0 0
3 3 4 5 6 8 10 13 15 17 17 16 15 12 10 6 2 1 0 0 0 0 0 1 2 3 3 3 3 2 1 0 0 0 0 0 0 0 0 0 0 0 0
1 2 3 4 5 6 8 10 13 14 13 13 12 11 9 5 1 0 0 0 0 0 0 0 1 2 2 2 2 2 1 0 0 0 0 0 0 0 0 0 0 0 0
1 2 2 4 5 6 7 9 10 10 9 9 7 6 6 4 2 1 0 0 0 0 0 0 0 1 1 1 1 1 0 0 0 0 0 0 0 0 0 0 0 0 0
2 1 1 3 4 5 6 7 7 6 6 5 4 3 4 4 3 1 0 0 0 0 0 0 0 0 0 0 0 0 0 0 0 0 0 0 0 0 0 0 0 0 0
2 1 1 1 2 3 4 4 5 5 4 3 2 2 3 3 2 1 0 0 0 0 0 0 0 0 0 0 0 0 0 0 0 0 0 0 0 0 0 0 0 0 0
3 2 1 1 2 3 2 2 3 4 2 1 1 1 1 1 1 0 0 0 0 0 0 0 0 0 0 0 0 0 0 0 0 0 0 0 0 0 0 0 0 0 0
3 2 1 0 1 2 2 2 2 2 1 0 0 1 1 1 1 0 0 0 0 0 0 0 0 0 0 0 0 0 0 0 0 0 0 0 0 0 0 0 0 0 0
2 1 0 0 1 2 3 2 2 2 2 1 1 1 2 2 2 1 0 0 0 0 0 0 0 0 0 0 0 0 0 0 0 0 0 0 0 0 0 0 0 0 0
2 1 0 0 1 2 3 3 3 3 2 2 1 2 3 3 3 2 1 0 0 0 0 0 0 0 0 0 0 0 0 0 0 0 0 0 0 0 0 0 0 0 0
1 0 0 0 1 2 1 2 3 3 3 4 4 3 3 3 3 2 1 0 0 0 0 0 0 0 0 0 0 0 0 0 0 0 0 0 0 0 0 0 0 0 0
1 0 1 1 2 1 1 1 2 4 5 6 6 5 3 3 3 2 1 0 0 0 0 0 0 0 0 1 1 1 1 0 0 0 0 0 0 0 0 0 0 0 0
4 3 4 4 4 2 1 1 2 4 5 6 6 5 4 3 3 3 1 0 0 0 0 0 0 0 0 1 2 2 2 1 0 0 0 0 0 0 0 0 0 0 0
8 8 9 8 7 4 2 1 2 5 8 8 6 5 5 4 4 3 2 1 0 0 0 0 0 0 0 1 3 3 3 2 1 0 0 0 0 0 0 0 0 0 0
10 11 12 11 10 8 7 6 8 12 15 15 11 7 6 6 5 5 4 2 0 0 0 0 0 1 0 1 2 2 2 2 2 1 1 0 0 0 0 0 0 0 0
8 10 13 14 16 17 17 19 25 28 28 23 18 13 11 9 8 8 7 4 2 1 0 0 0 0 0 0 1 1 1 1 2 2 2 1 0 0 0 0 0 0 0
6 8 12 15 21 24 26 34 43 44 39 32 25 20 18 13 11 10 9 8 6 4 3 2 2 1 0 0 0 0 0 0 1 2 2 1 1 0 0 0 0 0 0
7 9 12 17 23 26 31 41 50 50 44 38 30 26 23 19 15 12 11 11 11 9 8 6 6 5 2 0 0 0 0 0 0 1 1 1 1 0 0 0 0 0 0
13 14 16 21 27 33 39 46 50 48 44 40 34 29 26 23 19 15 13 14 15 14 12 10 9 9 6 2 0 0 0 0 0 0 0 1 1 0 0 0 0 0 0
19 19 21 27 37 46 50 51 49 46 44 40 34 29 27 25 22 19 18 17 17 15 14 12 12 13 9 3 0 0 0 0 0 0 0 0 0 0 0 0 0 0 0
19 21 24 30 40 49 51 49 45 43 41 37 29 25 23 21 19 20 20 16 14 14 15 14 14 14 10 4 1 0 0 0 0 0 0 0 0 0 0 0 0 0 0
16 17 23 29 35 39 41 43 40 35 32 27 22 18 16 12 12 16 17 13 11 11 12 12 11 11 9 5 1 0 0 0 0 0 0 0 0 0 0 0 0 0 0
13 14 19 23 24 25 29 36 35 28 23 20 17 14 10 5 5 10 12 10 8 7 6 6 7 7 8 6 3 1 1 0 0 0 0 0 0 0 0 0 0 0 0
14 15 17 19 18 16 20 27 27 23 20 17 15 13 9 5 5 8 8 7 6 5 4 4 4 6 7 6 4 3 3 2 1 1 1 2 2 2 1 1 2 2 1
15 15 16 15 12 10 11 15 17 15 13 12 11 10 8 6 6 6 5 4 4 4 4 4 3 4 4 3 2 2 3 3 3 2 3 4 6 5 3 3 5 5 4
13 13 12 10 8 6 5 6 8 9 7 7 7 7 6 6 5 4 4 3 2 2 2 2 1 2 2 1 0 1 2 2 2 2 3 5 6 6 5 5 6 7 6
Wind_Speed
9 9 9 10 10 9 9 9 9 9 7 6 6 6 6 5 5 5 6 5 5 5 2 3 3 1 2 1 0 1 1 1 3 4 3 2 2 1 1 1 2 1 2
10 10 10 9 10 9 9 9 9 9 8 6 5 4 5 5 5 4 5 5 5 4 4 2 3 2 2 1 0 1 3 2 2 4 5 3 3 4 1 1 0 1 1
11 11 11 10 10 10 10 9 9 9 8 8 6 6 5 5 5 5 5 4 4 4 2 3 1 1 2 1 0 1 2 3 2 2 4 4 3 2 2 1 0 1 2
11 12 12 12 12 11 10 10 10 9 9 8 7 8 6 5 5 5 5 5 4 4 3 3 2 2 1 1 2 1 2 3 3 0 1 3 5 5 2 2 2 1 2
12 13 13 13 13 13 12 11 10 9 9 8 7 7 6 5 5 5 6 5 5 4 3 3 3 2 1 1 1 1 3 3 3 3 2 2 2 5 6 5 4 3 3
13 12 12 13 12 13 12 11 11 10 9 8 8 7 6 6 6 6 6 5 4 4 4 4 3 2 1 1 1 1 1 2 3 4 3 3 4 4 4 5 5 5 3
14 14 14 14 13 14 13 13 12 11 10 9 8 7 7 8 7 7 6 5 4 4 5 3 3 2 2 1 1 1 1 1 2 3 3 3 4 4 5 6 6 6 5
15 15 15 15 15 15 14 14 13 12 11 10 9 8 8 7 6 6 5 5 4 4 5 4 4 3 3 2 2 2 2 1 2 3 3 4 4 4 4 5 6 7 6
15 16 16 16 16 16 16 15 14 12 12 11 10 9 8 6 6 6 6 5 4 4 6 5 4 4 3 3 3 2 2 2 4 4 4 4 3 4 4 5 5 7 8
16 16 16 16 15 15 15 15 14 14 13 12 10 9 9 8 7 7 6 5 5 4 5 5 5 4 4 4 4 4 3 3 4 3 3 4 4 3 4 5 5 6 7
16 16 15 16 15 15 15 15 14 14 13 12 11 10 10 10 9 8 8 7 6 6 6 6 5 5 5 5 5 5 4 5 5 5 5 5 5 5 5 5 5 6 6
15 16 16 16 15 15 15 15 14 14 13 12 12 11 10 10 10 9 8 8 7 7 7 6 6 6 6 6 6 6 5 6 6 6 5 6 5 5 7 5 6 6 6
15 15 16 16 16 16 15 15 15 14 14 13 13 12 11 11 10 9 9 8 8 7 7 7 7 7 6 6 6 6 6 6 6 6 6 7 6 7 6 6 7 7 7
15 16 15 15 15 15 15 15 15 14 14 13 13 13 12 11 11 10 9 9 8 8 8 8 8 7 7 7 7 7 7 7 7 7 7 8 8 8 7 7 8 8 8
16 16 16 15 15 15 15 15 15 14 14 14 14 13 12 11 10 10 10 9 9 9 8 8 8 8 7 7 7 7 7 7 8 8 8 8 7 6 7 8 7 8 8
16 16 17 16 16 16 15 15 15 15 15 14 14 13 12 12 11 11 10 10 10 9 9 9 9 9 7 5 4 7 8 8 8 8 8 8 9 11 13 13 12 11 11
14 15 15 15 14 15 15 15 15 14 14 14 13 13 12 12 12 11 11 11 10 10 10 10 9 9 7 8 9 9 9 10 9 9 9 9 7 7 10 12 16 16 17
11 12 12 13 12 12 13 13 13 14 14 14 13 13 13 12 11 11 11 11 10 9 9 10 10 9 8 11 11 10 11 11 11 11 10 10 10 10 9 10 11 11 12
7 8 9 10 10 11 12 12 13 13 13 13 13 12 12 12 11 11 11 10 9 9 9 9 10 10 9 11 12 11 10 10 12 12 12 11 12 9 8 11 12 13 12
4 5 6 6 7 8 10 11 12 12 13 12 11 10 10 10 11 11 10 9 8 9 9 9 9 10 10 9 13 12 10 10 10 10 11 12 14 10 9 11 12 13 12
4 5 5 5 5 7 9 9 9 10 10 10 10 9 9 9 9 8 8 7 8 8 9 9 9 10 10 9 13 14 10 10 10 10 10 8 12 14 13 13 13 13 12
6 6 6 6 5 6 8 7 7 6 6 7 7 8 8 8 7 8 8 8 8 8 9 9 10 9 9 10 11 15 16 13 12 11 11 8 8 13 13 12 13 13 10
7 6 7 7 6 5 6 6 6 6 6 7 7 7 7 7 7 7 8 7 7 8 8 8 8 8 7 8 12 14 16 16 12 11 12 11 7 9 12 17 17 13 12
7 7 7 7 6 5 4 4 4 5 6 6 5 5 6 6 6 5 6 6 7 7 7 7 7 7 7 7 6 7 9 13 13 13 13 15 15 14 15 12 12 13 12
7 7 6 6 6 6 5 4 4 4 4 4 3 4 4 4 4 5 5 6 6 5 6 7 7 7 8 5 4 6 8 8 6 7 9 11 10 11 11 11 11 11 11
7 7 7 7 6 6 5 4 4 3 3 3 2 2 2 2 3 4 5 6 7 6 8 9 9 8 8 8 8 9 9 9 6 7 12 12 12 12 11 11 10 10 11
Wind_Direction
160 157 156 157 155 154 155 160 156 153 157 155 158 154 147 147 144 141 137 149 147 145 162 137 136 176 102 72 8 310 262 298 327 294 278 231 214 234 240 287 302 279 273
164 159 158 160 160 161 164 161 158 157 163 150 148 143 135 145 136 129 134 150 150 158 165 145 169 141 135 139 81 335 315 336 340 315 302 274 197 183 162 229 233 340 305
170 165 166 169 164 164 170 165 157 158 160 154 151 142 141 152 151 153 150 146 151 157 140 163 184 178 233 137 195 294 316 322 318 341 319 310 331 327 171 148 206 328 324
171 167 169 172 170 168 169 164 162 161 162 168 170 172 172 166 154 160 143 148 155 154 156 171 175 203 220 147 234 79 303 296 302 289 303 322 341 307 299 217 189 239 283
176 171 170 170 170 168 167 164 163 162 166 174 173 182 177 158 151 153 141 158 148 159 162 163 165 181 201 107 358 355 301 297 308 318 311 299 260 264 287 296 301 279 278
177 172 168 167 167 169 167 165 165 167 169 176 178 187 169 164 161 166 159 174 161 164 157 159 160 184 150 143 210 272 240 323 339 315 307 300 298 299 297 291 286 293 298
178 175 173 172 172 172 172 170 171 172 174 177 180 181 175 173 175 181 174 186 173 169 158 164 171 170 156 183 219 231 301 276 285 283 296 305 301 307 300 296 300 300 291
180 180 180 178 177 176 175 174 177 178 178 180 180 179 177 185 177 183 181 182 187 164 152 173 178 181 191 201 200 239 217 230 261 278 301 290 285 295 292 297 303 298 293
180 181 182 181 180 178 179 180 179 179 181 182 177 177 182 186 169 167 189 179 174 166 170 181 185 188 194 208 224 241 240 237 254 256 237 261 281 273 284 287 289 296 299
181 179 182 182 182 181 180 183 182 183 182 181 183 179 179 179 176 185 182 176 176 175 181 191 194 197 202 209 231 234 210 241 247 263 286 280 278 283 276 277 279 280 288
182 180 180 182 181 181 180 183 184 184 184 185 186 181 181 180 182 186 184 183 187 186 194 198 204 208 213 217 226 250 231 241 248 249 248 255 278 283 285 275 274 275 279
181 181 180 181 182 184 185 186 187 187 186 185 185 186 184 185 188 189 189 189 192 198 201 205 211 217 219 222 230 240 240 243 248 252 257 260 256 256 270 279 278 279 281
182 181 182 184 187 189 190 190 192 192 189 185 187 187 188 190 196 193 192 195 198 204 206 211 219 223 225 226 231 239 245 248 251 255 257 259 260 261 268 272 276 279 275
186 185 185 189 191 193 193 195 195 194 190 188 191 190 193 194 197 197 195 198 203 206 209 214 222 227 229 230 232 235 241 248 252 253 255 257 258 258 264 264 263 270 279
190 191 192 193 194 196 196 197 195 193 190 191 194 193 194 194 197 198 199 201 206 211 211 217 221 226 230 232 234 240 241 245 252 252 251 252 254 275 269 277 283 280 275
196 197 197 197 198 199 198 197 195 191 189 193 194 192 193 193 196 199 200 202 207 215 215 220 225 228 232 156 189 252 259 253 253 256 256 255 230 229 227 241 256 268 271
200 200 200 201 201 201 200 198 194 188 189 193 193 192 194 197 199 202 202 206 209 212 218 224 228 233 223 178 199 222 255 259 257 258 259 262 262 239 248 231 224 237 240
204 202 202 200 201 200 197 197 190 187 191 194 195 194 197 199 201 205 208 211 214 216 219 225 230 234 225 189 204 213 238 254 255 254 254 258 265 261 259 266 262 259 248
202 202 204 200 194 193 190 187 187 187 191 195 197 197 198 200 200 205 210 213 217 221 224 226 230 235 231 197 202 213 243 246 250 253 253 255 259 248 225 253 263 265 265
175 180 182 181 176 180 178 182 187 187 193 194 194 193 196 201 204 207 210 213 218 227 232 231 233 236 240 207 198 207 245 252 256 252 250 240 240 247 213 244 258 264 268
138 141 139 140 149 156 163 178 184 190 193 187 183 186 191 200 207 206 205 211 218 227 235 240 238 239 242 222 201 205 239 257 260 263 261 257 205 216 220 232 253 261 272
111 119 120 120 127 140 153 169 180 181 177 175 177 183 187 198 198 200 203 209 219 225 230 237 245 243 236 235 219 209 222 247 261 265 269 272 198 206 217 227 243 250 257
91 102 111 110 111 129 150 163 164 158 162 167 177 183 185 196 202 203 205 210 215 231 235 235 243 248 245 229 216 215 221 229 245 263 270 280 260 228 233 234 236 238 243
80 88 97 104 107 115 129 139 139 149 153 160 167 174 183 192 197 213 217 222 226 235 243 248 252 257 255 256 245 231 225 222 233 250 258 249 246 244 259 260 232 231 242
72 77 85 91 94 96 97 101 111 128 142 157 174 184 192 206 211 215 229 234 238 248 256 263 266 269 270 278 306 285 277 281 294 294 268 264 259 250 246 246 246 246 242
75 76 78 80 81 82 79 74 88 115 138 151 170 196 202 201 234 239 236 223 241 234 237 248 264 274 272 287 282 271 271 276 281 272 263 264 264 263 263 263 260 253 247